User: anonymous   Login
Location: Carrières
(48.9495°N, 2.0407°E)
Time: 04:09:08
(UTC+00:00)
Language:

Cosmos 2263 Rocket - Orbit

View from above orbital plane
View from above orbital plane
View from above satellite
View from above satellite

Ground track
Ground track

The orbit data is extracted from the following two-line orbital elements,

1 22803U 93059B   24170.63323468  .00000271  00000-0  15813-3 0  9991
2 22803  70.9905 257.5095 0015021  88.7273 271.5571 14.17035592590418
Epoch (UTC): 18 June 2024 15:11:51
Eccentricity: 0.0015021
inclination: 70.9905°
perigee height: 824 km
apogee height: 846 km
right ascension of ascending node: 257.5095°
argument of perigee: 88.7273°
revolutions per day: 14.17035592
mean anomaly at epoch: 271.5571°
orbit number at epoch: 59041

The dashed part of the orbit path shows where the satellite is in the earth's shadow,  

DLR